Skip Page Navigation
NASA JPL Caltech
NASA Logo - Jet Propulsion Laboratory + View the NASA Portal
+ Center for Near-Earth Object Studies
JPL Home Earth Solar System Stars & Galaxies Technology
JPL Solar System Dynamics
BODIES ORBITS EPHEMERIDES TOOLS PHYSICAL DATA DISCOVERY FAQ SITE MAP
IMPORTANT: The SSD Announcement email list is now available. Major changes are coming in the near future, including possible hostname and/or URL changes. To be notified of such changes, subscribe to this email list.

Please visit this page for more details.


JPL Small-Body Database Browser
Search: [ help ]  
359984 (2012 VE16)
Classification: Main-belt Asteroid          SPK-ID: 2359984
Ephemeris | Orbit Diagram | Orbital Elements | Mission Design | Physical Parameters | Discovery Circumstances ]

[ show orbit diagram ]
Orbital Elements at Epoch 2458600.5 (2019-Apr-27.0) TDB
Reference: JPL 11 (heliocentric ecliptic J2000)
 Element Value Uncertainty (1-sigma)   Units 
e .1265894319510384 7.238e-08  
a 2.984254952571401 3.4886e-08 au
q 2.606479813328315 2.1156e-07 au
i 5.663560802901509 5.9376e-06 deg
node 280.7984375572647 6.8953e-05 deg
peri 117.3177482066598 7.3137e-05 deg
M 104.3701608206958 2.3438e-05 deg
tp 2458054.583571794850
(2017-Oct-28.08357179)
0.00012148 TDB
period 1883.008635882868
5.16
3.3018e-05
9.04e-08
d
yr
n .1911834035913544 3.3524e-09 deg/d
Q 3.362030091814488 3.9302e-08 au
  Orbit Determination Parameters
   # obs. used (total)      190  
   data-arc span      8174 days (22.38 yr)  
   first obs. used      1996-10-10  
   last obs. used      2019-02-26  
   planetary ephem.      DE431  
   SB-pert. ephem.      SB431-N16  
   condition code      0  
   norm. resid. RMS      .54382  
   source      ORB  
   producer      Otto Matic  
   solution date      2019-Jul-14 11:36:27  

Additional Information
 Earth MOID = 1.61981 au 
 Jupiter MOID = 2.05722 au 
 T_jup = 3.239 
[ show covariance matrix ]

Ephemeris | Orbit Diagram | Orbital Elements | Mission Design | Physical Parameters | Discovery Circumstances ]

Physical Parameter Table
Parameter Symbol Value Units Sigma Reference Notes
absolute magnitude H 15.9   n/a MPO434270  

359984 (2012 VE16)          Discovered 1996-Oct-10 by Spacewatch at Kitt Peak
Reference: 20130327/Numbers.arcLast Updated: 2013-03-29

Alternate Designations
 2012 VE16 = 1996 TT32 = 2007 XQ17 
Ephemeris | Orbit Diagram | Orbital Elements | Mission Design | Physical Parameters | Discovery Circumstances ]
ABOUT SSD CREDITS/AWARDS PRIVACY/COPYRIGHT GLOSSARY LINKS
FirstGov
(server date/time)  
NASA Home Page
Site Manager:   Ryan S. Park
Webmaster  Alan B. Chamberlin